Lumberton, NC

12:20 PM EDT on March 30, 2017 (GMT -0400)
Lumberton Municipal

Weather History for KLBT - May, 2013

Change the Weather History Date:

Friday, May 10, 2013

  Actual Average Record
Temperature  
Mean Temperature 71 °F 68 °F  
Max Temperature 87 °F 81 °F 91 °F (2000)
Min Temperature 54 °F 55 °F 49 °F (2006)
Degree Days  
Heating Degree Days 0 1  
Month to date heating degree days 18 20  
Since 1 July heating degree days 2782 2749  
Cooling Degree Days 6 4  
Month to date cooling degree days 9 37  
Year to date cooling degree days 53 105  
Growing Degree Days 20 (Base 50)    
Moisture  
Dew Point 58 °F    
Average Humidity 70    
Maximum Humidity 100    
Minimum Humidity 40    
Precipitation  
Precipitation 0.00 in 0.09 in 0.39 in (2002)
Month to date precipitation 0.73 0.73  
Year to date precipitation 12.09 12.75  
Sea Level Pressure  
Sea Level Pressure 30.04 in    
Wind  
Wind Speed 4 mph (SSW)    
Max Wind Speed 15 mph    
Max Gust Speed 21 mph    
Visibility 6 miles    
Events      
T = Trace of Precipitation, MM = Missing Value Source: NWS Daily Summary

Daily Weather History Graph

Daily Weather History Graph

Search for Another Location

Airport or City:

Trip Planner

Search our weather history database for the weather conditions in past years. The results will help you decide how hot, cold, wet, or windy it might be!

Date:

Astronomy

May. 10, 2013 Rise Set
Actual Time 6:17 AM EDT 8:08 PM EDT
Civil Twilight 5:49 AM EDT 8:36 PM EDT
Nautical Twilight 5:16 AM EDT 9:09 PM EDT
Astronomical Twilight 4:41 AM EDT 9:45 PM EDT
Moon 6:40 AM EDT (5/10) 8:55 PM EDT (5/10)
Length of Visible Light 14h 46m
Length of Day
13h 51m
New Moon, 0% of the Moon is Illuminated
May 10
New Moon
May 18
First Quarter
May 25
Full
May 31
Last Quarter
Jun 8
New

Hourly Weather History & Observations

Time (EDT) Temp. Heat Index Dew Point Humidity Pressure Visibility Wind Dir Wind Speed Gust Speed Precip Events Conditions
2:54 AM 57.0 °F - 55.9 °F 96% 30.06 in 7.0 mi Calm Calm - N/A   Clear
3:54 AM 55.9 °F - 55.0 °F 97% 30.07 in 3.0 mi Calm Calm - N/A   Clear
4:54 AM 55.0 °F - 55.0 °F 100% 30.05 in 4.0 mi Calm Calm - N/A   Clear
5:39 AM 53.6 °F - 53.6 °F 100% 30.06 in 1.5 mi Calm Calm - N/A   Clear
5:49 AM 55.4 °F - 53.6 °F 94% 30.06 in 2.5 mi Calm Calm - N/A   Clear
5:54 AM 55.9 °F - 55.0 °F 97% 30.06 in 3.0 mi Calm Calm - N/A   Clear
6:10 AM 55.4 °F - 53.6 °F 94% 30.06 in 1.8 mi Calm Calm - N/A   Clear
6:19 AM 55.4 °F - 55.4 °F 100% 30.07 in 1.2 mi Calm Calm - N/A   Clear
6:25 AM 55.4 °F - 55.4 °F 100% 30.07 in 0.8 mi Calm Calm - N/A   Clear
6:41 AM 55.4 °F - 55.4 °F 100% 30.07 in 1.2 mi Calm Calm - N/A   Clear
6:50 AM 57.2 °F - 55.4 °F 94% 30.07 in 1.8 mi Calm Calm - N/A   Clear
6:54 AM 57.0 °F - 55.9 °F 96% 30.07 in 2.0 mi Calm Calm - N/A   Clear
9:54 AM 75.9 °F - 64.0 °F 67% 30.08 in 9.0 mi SW 3.5 mph - N/A   Clear
10:54 AM 80.1 °F 81.7 °F 64.0 °F 58% 30.07 in 10.0 mi Calm Calm - N/A   Clear
11:54 AM 82.9 °F 83.3 °F 61.0 °F 47% 30.06 in 10.0 mi SW 4.6 mph - N/A   Clear
1:54 PM 86.0 °F 85.7 °F 60.1 °F 41% 30.04 in 10.0 mi South 5.8 mph - N/A   Scattered Clouds
2:54 PM 84.9 °F 84.4 °F 59.0 °F 41% 30.03 in 10.0 mi SW 11.5 mph 18.4 mph N/A   Mostly Cloudy
3:54 PM 84.9 °F 84.2 °F 57.9 °F 40% 30.00 in 10.0 mi SSW 12.7 mph 18.4 mph N/A   Partly Cloudy
4:54 PM 84.0 °F 83.8 °F 59.0 °F 43% 29.99 in 10.0 mi SW 9.2 mph 17.3 mph N/A   Clear
5:54 PM 82.9 °F 83.2 °F 60.1 °F 46% 29.97 in 10.0 mi SSW 8.1 mph - N/A   Partly Cloudy
6:54 PM 80.1 °F 81.7 °F 64.0 °F 58% 29.97 in 10.0 mi Variable 5.8 mph - N/A   Partly Cloudy
7:54 PM 75.9 °F - 63.0 °F 64% 29.98 in 10.0 mi SSE 3.5 mph - N/A   Clear
8:54 PM 73.9 °F - 63.0 °F 68% 29.99 in 10.0 mi South 3.5 mph - N/A   Clear
9:54 PM 73.0 °F - 61.0 °F 66% 30.00 in 10.0 mi South 5.8 mph - N/A   Clear
10:54 PM 73.0 °F - 60.1 °F 64% 30.00 in 10.0 mi South 3.5 mph - N/A   Clear
11:54 PM 71.1 °F - 60.1 °F 68% 30.00 in 10.0 mi Variable 4.6 mph - N/A   Clear